Volver al catálogo

FREGAT R/B

LostHEO
NORAD 68572·ROCKET BODY·🇷🇺 Russia

Lanzado Jan 3, 2026 desde Plesetsk Cosmodrome

Loading…

Próximos Pases (próximas 24 horas)

TLE

ObsoletoSource: Space-Track

Época: Apr 3, 2026, 07:42 UTC

1 68572U 26071B   26093.32132148 -.00001541  00000-0  35052-3 0  9998
2 68572  63.0589 237.9448 7313820 284.9724  10.3188  2.01041412    15

Sigue FREGAT R/B en tiempo real con AllMySat

Download on the App Store